Regional Weather Roundup
Issued by NWS

Home | Current Version | Previous Version | Graphics & Text | Print | Product List | Glossary On
Versions: 1 2 3 4 5 6 7 8 9 10 11 12 13 14 15 16 17 18 19 20 21 22 23 24 25 26 27 28 29 30 31 32 33 34 35 36 37 38 39 40 41 42 43 44 45 46 47 48 49 50
925
ASUS43 KLSX 301757
RWRMO

WEATHER SUMMARY FOR MISSOURI
NATIONAL WEATHER SERVICE SPRINGFIELD MO
100 PM CDT THU MAR 30 2017

NOTE: "FAIR" INDICATES FEW OR NO CLOUDS BELOW 12,000 FEET WITH NO
       SIGNIFICANT WEATHER AND/OR OBSTRUCTIONS TO VISIBILITY.
       CURRENT SKY AND/OR WEATHER CONDITIONS ARE NOT AVAILABLE FOR
       CHILLICOTHE AND FARMINGTON.

MOZ001>031-035>038-043-044-053-054-301900-
...NORTHERN AND WESTERN MISSOURI...

CITY           SKY/WX    TMP DP  RH WIND       PRES   REMARKS
KANSAS CTY INT CLOUDY    48  47  96 N15       29.58R
6HR MIN TEMP:  48; 6HR MAX TEMP:  52; 6HR PCP: TRACE;

LEE`S SUMMIT   CLOUDY    52  48  86 CALM      29.57S
6HR MIN TEMP:  47; 6HR MAX TEMP:  52; 6HR PCP: TRACE;

ST JOSEPH      CLOUDY    48  46  93 N14       29.61S
6HR MIN TEMP:  46; 6HR MAX TEMP:  49; 6HR PCP:  0.04;

CHILLICOTHE      N/A     50  49  96 N7        29.59S
6HR MIN TEMP:  48; 6HR MAX TEMP:  51;

KIRKSVILLE     CLOUDY    48  48 100 N9        29.59R

$$
MOZ066>068-077>081-088>096-101>105-301900-
...SOUTHWEST MISSOURI...

CITY           SKY/WX    TMP DP  RH WIND       PRES   REMARKS
SPRINGFIELD    CLOUDY    49  43  80 SW18      29.61S
6HR MIN TEMP:  47; 6HR MAX TEMP:  51; 6HR PCP: TRACE;

JOPLIN         LGT RAIN  47  47 100 SW16G22   29.62S FOG
6HR MIN TEMP:  46; 6HR MAX TEMP:  48; 6HR PCP:  0.02;

BRANSON        CLOUDY    48  39  71 W9        29.65F

$$
MOZ032>034-039>042-045>050-055>058-069>072-301900-
...CENTRAL MISSOURI...

CITY           SKY/WX    TMP DP  RH WIND       PRES   REMARKS
COLUMBIA       NOT AVBL
JEFFERSON CITY PTSUNNY   57  43  59 W14       29.57F
6HR MIN TEMP:  53; 6HR MAX TEMP:  62; 6HR PCP:  0.04;

ROLLA          PTSUNNY   54  46  74 SW17      29.56F
6HR MIN TEMP:  50; 6HR MAX TEMP:  60; 6HR PCP:  0.07;

SEDALIA        CLOUDY    53  44  71 SW14G20   29.59S
6HR MIN TEMP:  49; 6HR MAX TEMP:  54;

WARRENSBURG    CLOUDY    50  45  81 S3        29.57S

$$
MOZ051-052-059>065-301900-
...EAST CENTRAL MISSOURI...

CITY           SKY/WX    TMP DP  RH WIND       PRES   REMARKS
ST LOUIS INTL  LGT RAIN  60  55  83 W12       29.54S
6HR MIN TEMP:  59; 6HR MAX TEMP:  71; 6HR PCP:  1.01;


$$
MOZ072>076-082>087-097>100-106>115-301900-
...SOUTH CENTRAL AND SOUTHEAST MISSOURI...

CITY           SKY/WX    TMP DP  RH WIND       PRES   REMARKS
CAPE GIRARDEAU PTSUNNY   69  59  70 S24G35    29.55F
6HR MIN TEMP:  63; 6HR MAX TEMP:  71; 6HR PCP:  0.01;

POPLAR BLUFF   MOSUNNY   69  57  65 SW30G40   29.56F
6HR MIN TEMP:  64; 6HR MAX TEMP:  72; 6HR PCP: TRACE;

WEST PLAINS    CLOUDY    56  44  64 SW14G26   29.62R
6HR MIN TEMP:  52; 6HR MAX TEMP:  60; 6HR PCP:  0.03;


$$



USA.gov is the U.S. government's official web portal to all federal, state and local government web resources and services.